TVF73ET LIBR-LFPO

Flight info

Callsign TVF73ET
Flight time N/A
Altitude 38000
Route FASAN DCT BAR DCT LIKNO DCT GOXIN DCT LURUT DCT EVANO DCT AOSTA DCT ORSUD DCT MOLUS DCT UNKIR DCT DJL
Aircraft A320/M-SBDE2E3FGHIJ1J5M1P2RWYZ/LB1D1G1

Departure

Time 2026-05-07 07:02
Airport Brindisi Airport (LIBR)

Arrival

Time N/A
Airport Paris-Orly Airport (LFPO)
Time Latitude Longitude Altitude Speed Heading
2026-05-07 06:37 40.65759 17.94019 44 ft 0 kts 322°
2026-05-07 06:52 40.65742 17.94037 44 ft 4 kts 322°
2026-05-07 06:52 40.65720 17.94059 44 ft 4 kts 323°
2026-05-07 06:52 40.65698 17.94079 43 ft 4 kts 332°
2026-05-07 06:53 40.65675 17.94090 43 ft 4 kts 15°
2026-05-07 06:53 40.65666 17.94085 41 ft 0 kts 52°
2026-05-07 06:55 40.65683 17.94112 43 ft 7 kts 52°
2026-05-07 06:55 40.65727 17.94188 44 ft 14 kts 52°
2026-05-07 06:55 40.65798 17.94310 44 ft 19 kts 52°
2026-05-07 06:55 40.65881 17.94452 42 ft 19 kts 52°
2026-05-07 06:56 40.65958 17.94582 39 ft 17 kts 51°
2026-05-07 06:56 40.66012 17.94669 43 ft 9 kts 51°
2026-05-07 06:56 40.66053 17.94705 44 ft 7 kts 359°
2026-05-07 06:56 40.66099 17.94665 44 ft 10 kts 318°
2026-05-07 06:57 40.66151 17.94601 44 ft 12 kts 317°
2026-05-07 06:57 40.66239 17.94495 44 ft 21 kts 317°
2026-05-07 06:57 40.66344 17.94365 44 ft 20 kts 316°
2026-05-07 06:57 40.66441 17.94245 44 ft 18 kts 317°
2026-05-07 06:58 40.66532 17.94138 44 ft 17 kts 318°
2026-05-07 06:58 40.66619 17.94033 44 ft 19 kts 317°
2026-05-07 06:58 40.66713 17.93920 44 ft 18 kts 317°
2026-05-07 06:58 40.66805 17.93807 44 ft 20 kts 317°
2026-05-07 06:59 40.66906 17.93684 44 ft 19 kts 317°
2026-05-07 06:59 40.67001 17.93568 44 ft 18 kts 317°
2026-05-07 06:59 40.67088 17.93460 44 ft 16 kts 316°
2026-05-07 06:59 40.67170 17.93359 44 ft 18 kts 317°
2026-05-07 07:00 40.67283 17.93224 43 ft 23 kts 317°
2026-05-07 07:00 40.67394 17.93088 44 ft 21 kts 317°
2026-05-07 07:00 40.67497 17.92962 44 ft 20 kts 317°
2026-05-07 07:00 40.67584 17.92854 44 ft 16 kts 317°
2026-05-07 07:01 40.67637 17.92784 42 ft 8 kts 303°
2026-05-07 07:01 40.67633 17.92720 42 ft 9 kts 239°
2026-05-07 07:01 40.67578 17.92646 40 ft 11 kts 216°
2026-05-07 07:01 40.67524 17.92636 39 ft 7 kts 158°
2026-05-07 07:02 40.67470 17.92698 39 ft 22 kts 137°
2026-05-07 07:02 40.67151 17.93086 41 ft 99 kts 137°
2026-05-07 07:02 40.66496 17.93878 57 ft 153 kts 138°
2026-05-07 07:02 40.65698 17.94819 760 ft 153 kts 139°
2026-05-07 07:03 40.64910 17.95749 1610 ft 151 kts 140°
2026-05-07 07:03 40.64141 17.96658 2429 ft 150 kts 142°
2026-05-07 07:03 40.63366 17.97574 3210 ft 150 kts 142°
2026-05-07 07:03 40.62553 17.98532 3721 ft 167 kts 141°
2026-05-07 07:04 40.61629 17.99618 4108 ft 190 kts 141°
2026-05-07 07:04 40.60601 18.00894 4541 ft 217 kts 134°
2026-05-07 07:04 40.59742 18.02670 5033 ft 246 kts 116°
2026-05-07 07:04 40.59309 18.04969 5580 ft 273 kts 96°
2026-05-07 07:05 40.59528 18.07509 6378 ft 288 kts 73°
2026-05-07 07:05 40.60445 18.09828 7221 ft 294 kts 50°
2026-05-07 07:05 40.61992 18.11602 8087 ft 298 kts 26°
2026-05-07 07:05 40.63944 18.12475 8958 ft 298 kts
2026-05-07 07:06 40.65983 18.12310 9870 ft 293 kts 339°
2026-05-07 07:06 40.67802 18.11206 10735 ft 287 kts 321°
2026-05-07 07:06 40.69579 18.09944 11617 ft 296 kts 329°
2026-05-07 07:06 40.71365 18.08490 11975 ft 309 kts 309°
2026-05-07 07:07 40.72444 18.06060 12521 ft 311 kts 284°
2026-05-07 07:07 40.72991 18.03322 13286 ft 315 kts 282°
2026-05-07 07:07 40.73577 18.00524 14086 ft 318 kts 284°
2026-05-07 07:07 40.74198 17.97708 14797 ft 322 kts 284°
2026-05-07 07:08 40.74838 17.94862 15474 ft 326 kts 284°
2026-05-07 07:08 40.75495 17.91979 16139 ft 330 kts 284°
2026-05-07 07:08 40.76160 17.89059 16800 ft 335 kts 284°
2026-05-07 07:08 40.76830 17.86095 17450 ft 339 kts 284°
2026-05-07 07:09 40.77502 17.83093 18102 ft 344 kts 283°
2026-05-07 07:09 40.78179 17.80052 18676 ft 348 kts 283°
2026-05-07 07:09 40.78862 17.76967 19224 ft 352 kts 283°
2026-05-07 07:09 40.79539 17.73890 19783 ft 357 kts 282°
2026-05-07 07:10 40.80238 17.70722 20285 ft 362 kts 282°
2026-05-07 07:10 40.80949 17.67507 20815 ft 367 kts 282°
2026-05-07 07:10 40.81668 17.64251 21318 ft 372 kts 282°
2026-05-07 07:10 40.82395 17.60958 21828 ft 376 kts 282°
2026-05-07 07:11 40.83133 17.57622 22328 ft 380 kts 282°
2026-05-07 07:11 40.83874 17.54250 22826 ft 385 kts 281°
2026-05-07 07:11 40.84617 17.50840 23328 ft 389 kts 281°
2026-05-07 07:11 40.85357 17.47437 23778 ft 393 kts 281°
2026-05-07 07:12 40.86136 17.43965 24242 ft 396 kts 284°
2026-05-07 07:12 40.87285 17.40628 24738 ft 403 kts 295°
2026-05-07 07:12 40.88684 17.37413 25214 ft 404 kts 295°
2026-05-07 07:12 40.90088 17.34186 25673 ft 406 kts 295°
2026-05-07 07:13 40.91497 17.30939 26092 ft 408 kts 295°
2026-05-07 07:13 40.92913 17.27672 26507 ft 411 kts 295°
2026-05-07 07:13 40.94337 17.24382 26917 ft 413 kts 295°
2026-05-07 07:13 40.95750 17.21124 27306 ft 416 kts 295°
2026-05-07 07:14 40.97194 17.17797 27712 ft 418 kts 295°
2026-05-07 07:14 40.98646 17.14447 28107 ft 421 kts 295°
2026-05-07 07:14 41.00104 17.11074 28487 ft 423 kts 295°
2026-05-07 07:14 41.01564 17.07682 28870 ft 426 kts 295°
2026-05-07 07:15 41.03035 17.04261 29273 ft 428 kts 295°
2026-05-07 07:15 41.04509 17.00833 29727 ft 429 kts 295°
2026-05-07 07:15 41.05984 16.97398 30130 ft 430 kts 295°
2026-05-07 07:15 41.07465 16.93939 30470 ft 432 kts 295°
2026-05-07 07:16 41.08931 16.90508 30773 ft 435 kts 295°
2026-05-07 07:16 41.10423 16.87010 31033 ft 437 kts 295°
2026-05-07 07:16 41.11925 16.83494 31306 ft 439 kts 295°
2026-05-07 07:16 41.13435 16.79963 31578 ft 442 kts 295°
2026-05-07 07:17 41.15148 16.76553 31905 ft 447 kts 304°
2026-05-07 07:17 41.17163 16.73396 32294 ft 448 kts 306°
2026-05-07 07:17 41.19187 16.70254 32664 ft 448 kts 306°
2026-05-07 07:17 41.21208 16.67102 33047 ft 448 kts 306°
2026-05-07 07:18 41.23224 16.63953 33475 ft 446 kts 306°
2026-05-07 07:18 41.25233 16.60816 33895 ft 445 kts 306°
2026-05-07 07:18 41.27210 16.57722 34254 ft 445 kts 306°
2026-05-07 07:18 41.29209 16.54593 34614 ft 443 kts 306°
2026-05-07 07:19 41.31200 16.51475 34978 ft 442 kts 306°
2026-05-07 07:19 41.33186 16.48367 35344 ft 440 kts 306°
2026-05-07 07:19 41.35165 16.45271 35695 ft 438 kts 306°
2026-05-07 07:19 41.37130 16.42188 36029 ft 436 kts 306°
2026-05-07 07:20 41.39087 16.39111 36367 ft 435 kts 306°
2026-05-07 07:20 41.41034 16.36043 36703 ft 433 kts 306°
2026-05-07 07:20 41.42975 16.32987 37035 ft 431 kts 306°
2026-05-07 07:20 41.44883 16.29984 37370 ft 430 kts 306°
2026-05-07 07:21 41.46813 16.26946 37664 ft 429 kts 306°
2026-05-07 07:21 41.48735 16.23914 37927 ft 428 kts 306°
2026-05-07 07:21 41.50655 16.20876 38028 ft 427 kts 306°
2026-05-07 07:21 41.52562 16.17849 38033 ft 426 kts 306°
2026-05-07 07:22 41.56371 16.11805 38030 ft 425 kts 306°
2026-05-07 07:22 41.60152 16.05807 38030 ft 425 kts 306°
2026-05-07 07:23 41.63947 15.99754 38030 ft 425 kts 306°
2026-05-07 07:23 41.67738 15.93693 38028 ft 425 kts 306°
2026-05-07 07:24 41.71531 15.87631 38043 ft 425 kts 306°
2026-05-07 07:24 41.75316 15.81562 38052 ft 425 kts 306°
2026-05-07 07:25 41.80967 15.72497 38061 ft 424 kts 306°
2026-05-07 07:26 41.84745 15.66414 38057 ft 425 kts 306°
2026-05-07 07:26 41.88522 15.60320 38074 ft 424 kts 306°
2026-05-07 07:27 41.92285 15.54230 38063 ft 423 kts 306°
2026-05-07 07:27 41.96023 15.48189 38053 ft 423 kts 306°
2026-05-07 07:28 41.99776 15.42100 38047 ft 423 kts 305°
2026-05-07 07:28 42.03521 15.35994 38032 ft 423 kts 305°
2026-05-07 07:29 42.07271 15.29879 38032 ft 424 kts 305°
2026-05-07 07:29 42.11023 15.23763 38044 ft 423 kts 305°
2026-05-07 07:30 42.14742 15.17686 38036 ft 423 kts 305°
2026-05-07 07:30 42.18471 15.11564 38028 ft 422 kts 305°
2026-05-07 07:31 42.22198 15.05432 38032 ft 423 kts 305°
2026-05-07 07:31 42.25919 14.99297 38038 ft 422 kts 305°
2026-05-07 07:32 42.29616 14.93198 38026 ft 422 kts 305°
2026-05-07 07:32 42.33331 14.87058 38040 ft 422 kts 304°
2026-05-07 07:33 42.37040 14.80915 38034 ft 421 kts 304°
2026-05-07 07:33 42.40742 14.74771 38028 ft 421 kts 304°
2026-05-07 07:34 42.44405 14.68658 38029 ft 421 kts 304°
2026-05-07 07:34 42.48096 14.62507 38033 ft 421 kts 304°
2026-05-07 07:35 42.51792 14.56351 38048 ft 421 kts 304°
2026-05-07 07:35 42.55481 14.50182 38044 ft 421 kts 304°
2026-05-07 07:36 42.59137 14.44048 38041 ft 421 kts 304°
2026-05-07 07:36 42.62811 14.37859 38038 ft 421 kts 304°
2026-05-07 07:37 42.66478 14.31669 38034 ft 421 kts 304°
2026-05-07 07:37 42.70157 14.25478 38033 ft 421 kts 304°
2026-05-07 07:38 42.73824 14.19273 38053 ft 421 kts 304°
2026-05-07 07:38 42.77459 14.13108 38040 ft 420 kts 303°
2026-05-07 07:39 42.81106 14.06911 38036 ft 420 kts 303°
2026-05-07 07:39 42.84752 14.00696 38031 ft 420 kts 303°
2026-05-07 07:40 42.88398 13.94473 38032 ft 420 kts 303°
2026-05-07 07:40 42.92022 13.88286 38031 ft 420 kts 303°
2026-05-07 07:41 42.95667 13.82056 38033 ft 420 kts 303°
2026-05-07 07:41 42.99301 13.75821 38030 ft 420 kts 303°
2026-05-07 07:42 43.02909 13.69615 38042 ft 420 kts 303°
2026-05-07 07:42 43.06542 13.63354 38022 ft 420 kts 303°
2026-05-07 07:43 43.10170 13.57086 38014 ft 420 kts 302°
2026-05-07 07:43 43.13794 13.50808 38015 ft 421 kts 302°
2026-05-07 07:44 43.17398 13.44557 38030 ft 421 kts 302°
2026-05-07 07:44 43.21024 13.38255 38022 ft 421 kts 302°
2026-05-07 07:45 43.24640 13.31938 38013 ft 421 kts 302°
2026-05-07 07:45 43.28265 13.25616 38019 ft 422 kts 302°
2026-05-07 07:46 43.31888 13.19278 38020 ft 422 kts 302°
2026-05-07 07:46 43.35484 13.12970 38064 ft 422 kts 302°
2026-05-07 07:47 43.39093 13.06630 38024 ft 420 kts 302°
2026-05-07 07:47 43.42693 13.00306 38016 ft 420 kts 302°
2026-05-07 07:48 43.46281 12.93960 38012 ft 420 kts 301°
2026-05-07 07:48 43.49837 12.87655 38015 ft 420 kts 302°
2026-05-07 07:49 43.53418 12.81297 38006 ft 420 kts 302°
2026-05-07 07:49 43.57001 12.74924 38025 ft 421 kts 302°
2026-05-07 07:50 43.60594 12.68539 38015 ft 421 kts 302°
2026-05-07 07:50 43.64184 12.62145 38014 ft 421 kts 301°
2026-05-07 07:51 43.67744 12.55783 38011 ft 421 kts 301°
2026-05-07 07:51 43.71319 12.49373 38013 ft 421 kts 301°
2026-05-07 07:52 43.74888 12.42953 38032 ft 421 kts 301°
2026-05-07 07:52 43.78455 12.36533 38023 ft 419 kts 301°
2026-05-07 07:53 43.82066 12.30260 38020 ft 421 kts 304°
2026-05-07 07:53 43.85886 12.24110 38013 ft 421 kts 305°
2026-05-07 07:54 43.89733 12.17976 38011 ft 421 kts 304°
2026-05-07 07:54 43.93536 12.11796 38009 ft 421 kts 304°
2026-05-07 07:55 43.97280 12.05631 38008 ft 421 kts 304°
2026-05-07 07:55 44.01059 11.99394 38021 ft 423 kts 304°
2026-05-07 07:56 44.04859 11.93132 38000 ft 424 kts 304°
2026-05-07 07:56 44.08665 11.86857 38000 ft 425 kts 304°
2026-05-07 07:57 44.12454 11.80611 38006 ft 425 kts 304°
2026-05-07 07:57 44.16258 11.74299 38013 ft 426 kts 304°
2026-05-07 07:58 44.20058 11.67976 38018 ft 426 kts 304°
2026-05-07 07:58 44.23859 11.61645 38038 ft 426 kts 304°
2026-05-07 07:59 44.27504 11.55244 38037 ft 420 kts 296°
2026-05-07 07:59 44.30555 11.48311 38025 ft 419 kts 296°
2026-05-07 08:00 44.33607 11.41369 38020 ft 419 kts 296°
2026-05-07 08:00 44.36651 11.34413 38016 ft 420 kts 296°
2026-05-07 08:01 44.39699 11.27455 38034 ft 420 kts 296°